Location: Quaker Farms
(41.4276°N, 73.1557°W)
Time: 11:02:16
(UTC+00:00)

Vanguard 2 - Visible Passes

Search period start: 13 June 2021 00:00
Search period end: 23 June 2021 00:00
Orbit: 552 x 2937 km, 32.9° (Epoch: 13 June)

Date Brightness Start Highest point End Pass type
(mag) Time Alt. Az. Time Alt. Az. Time Alt. Az.
13 Jun 8.4 02:02:54 10° WSW 02:09:08 34° S 02:11:16 24° SE visible
14 Jun 8.2 02:20:32 10° WSW 02:26:44 35° S 02:28:10 30° SSE visible
15 Jun 8.2 02:38:16 10° WSW 02:44:17 34° S 02:45:01 32° S visible
16 Jun 8.4 02:56:05 10° WSW 03:01:48 31° SSW 03:01:49 31° SSW visible
17 Jun 8.8 01:02:42 10° WSW 01:11:21 43° S 01:16:47 10° ESE visible
17 Jun 8.8 03:13:59 10° WSW 03:18:34 25° SW 03:18:34 25° SW visible
18 Jun 8.7 01:20:26 10° WSW 01:28:57 43° S 01:33:54 12° ESE visible
18 Jun 9.3 03:32:05 10° WSW 03:35:18 19° SW 03:35:18 19° SW visible
19 Jun 8.8 01:38:15 10° WSW 01:46:30 40° SSW 01:50:37 17° SE visible
19 Jun 9.7 03:50:29 10° WSW 03:52:00 13° SW 03:52:00 13° SW visible
20 Jun 8.9 01:56:08 10° W 02:04:00 36° SSW 02:07:17 21° SSE visible
21 Jun 8.9 02:14:07 10° W 02:21:24 30° SSW 02:23:57 23° SSE visible
22 Jun 9.2 02:32:14 10° W 02:38:43 25° SSW 02:40:37 21° S visible
